Location: Saint-Denis
(20.8800°S, 55.4481°E)
Time: 04:41:08
(UTC+04:00)

ARIANE 6 FM1 Upper Stage - Visible Passes

Search period start: 22 January 2026 00:00
Search period end: 01 February 2026 00:00
Orbit: 522 x 610 km, 62.0° (Epoch: 21 January)

Date Brightness Start Highest point End Pass type
(mag) Time Alt. Az. Time Alt. Az. Time Alt. Az.
24 Jan 5.3 04:38:10 10° NNE 04:40:37 15° ENE 04:43:07 10° ESE visible
25 Jan 4.7 04:37:10 10° NNE 04:40:36 25° ENE 04:44:09 10° ESE visible
26 Jan 3.8 04:37:35 16° N 04:40:37 42° ENE 04:44:43 10° SE visible
27 Jan 2.8 04:38:28 27° NNW 04:40:39 74° ENE 04:44:59 10° SSE visible
28 Jan 2.7 04:39:15 38° NW 04:40:43 65° WSW 04:45:02 10° SSE visible
29 Jan 3.4 04:39:56 34° W 04:40:48 38° WSW 04:44:52 10° S visible
30 Jan 5.7 03:04:30 13° ESE 03:04:30 13° ESE 03:05:09 10° ESE visible
30 Jan 4.0 04:40:32 23° WSW 04:40:56 24° WSW 04:44:28 10° S visible
31 Jan 5.6 03:05:01 15° ESE 03:05:01 15° ESE 03:05:53 10° SE visible
31 Jan 4.7 04:41:03 15° SW 04:41:06 15° SW 04:43:39 10° SSW visible
